Home   Weather   Santa Clara   Past weeks

Flag for USA Past Weather in Santa Clara, California, USA — Yesterday and Last 2 Weeks

Now
49 °F

Broken clouds.


Feels Like: 45 °F
Forecast: 46 / 57 °F
Wind: 10 mph from Southeast

Location: San Jose International Airport

Current Time: Feb 19, 2017 at 8:46:27 am

Latest Report: Feb 19, 2017 at 7:53 am


Visibility: 10 mi

Pressure: 29.85 "Hg

Humidity: 71%

Dew Point: 40 °F

Location of Santa ClaraLocation

Past Weather in Santa Clara — Graph

°F

Santa Clara Temperature Yesterday

Maximum temperature yesterday: 55 °F (at 1:53 am)
Minimum temperature yesterday: 48 °F (at 11:53 pm)
Average temperature yesterday: 53 °F

High & Low Weather Summary for the Past Weeks

 TemperatureHumidityPressure
High70 °F (Feb 14, 2:53 pm)100% (Feb 13, 8:30 am)30.25 "Hg (Feb 13, 8:30 am)
Low41 °F (Feb 12, 6:53 am)37% (Feb 12, 12:53 pm)29.14 "Hg (Feb 17, 4:53 pm)
Average57 °F77%29.94 "Hg
* Reported Feb 4 6:53 am — Feb 19 6:53 am, Santa Clara, Weather by CustomWeather, © 2017

Note: Actual official high and low records may vary slightly from our data, if they occured in-between our weather recording intervals... More about our weather records

Advertising

Santa Clara Weather History for the Previous 24 Hours

Scroll right to see more
 ConditionsComfort  
Time TempWeatherWind HumidityBarometerVisibility
6:53 am
Sun, Feb 19
48 °FMostly cloudy.10 mph77%29.85 "Hg10 mi
5:53 am48 °FPartly cloudy.8 mph77%29.84 "Hg10 mi
4:53 am48 °FMostly cloudy.6 mph80%29.84 "Hg10 mi
3:53 am49 °FOvercast.6 mph77%29.84 "Hg10 mi
2:53 am49 °FOvercast.3 mph77%29.84 "Hg10 mi
1:53 am49 °FOvercast.3 mph74%29.83 "Hg10 mi
12:53 am48 °FMostly cloudy.3 mph77%29.83 "Hg10 mi
11:53 pm
Sat, Feb 18
48 °FPassing clouds.3 mph74%29.82 "Hg10 mi
10:53 pm49 °FPassing clouds.5 mph69%29.81 "Hg10 mi
9:53 pm50 °FPassing clouds.No wind63%29.81 "Hg10 mi
8:53 pm51 °FPartly cloudy.6 mph63%29.78 "Hg10 mi
7:53 pm51 °FPartly cloudy.12 mph63%29.77 "Hg10 mi
6:53 pm52 °FMostly cloudy.10 mph64%29.74 "Hg10 mi
5:53 pm52 °FMostly cloudy.10 mph64%29.70 "Hg10 mi
4:53 pm53 °FCloudy.16 mph66%29.68 "Hg10 mi
3:53 pm53 °FCloudy.18 mph69%29.67 "Hg10 mi
2:53 pm55 °FBroken clouds.16 mph67%29.64 "Hg10 mi
1:53 pm55 °FBroken clouds.13 mph69%29.62 "Hg10 mi
12:53 pm55 °FMostly cloudy.13 mph72%29.62 "Hg10 mi
11:53 am55 °FMostly cloudy.20 mph72%29.62 "Hg10 mi
10:53 am55 °FMostly cloudy.15 mph77%29.61 "Hg10 mi
9:53 am54 °FMostly cloudy.15 mph83%29.59 "Hg7 mi
9:37 am53 °FFog.14 mph89%29.59 "Hg3 mi
8:58 am52 °FLight rain. Fog.13 mph93%29.56 "Hg1 mi
8:24 am52 °FLight rain. Fog.8 mph93%29.54 "Hg2 mi
8:12 am53 °FLight rain. Mostly cloudy.12 mph86%29.53 "Hg2 mi
Weather by CustomWeather, © 2017

See weather overviewHow to use our weather pages